CZ-6A DEB

Satellite information

Favourite Embed

Satellite Type and Status

DEBRISIN ORBIT

Key statistics

Satellite CZ-6A DEB at a glance.

Uptime

396

Days in orbit

Revolutions

≈ 14.4

Per day

Orbit

LEO

Low Earth Orbit

Inclination

89.0

Latest

Satellite identification and parameters

Extended collection of information and parameters for CZ-6A DEB.

Object identification

Identified? True

Debris? True

Object name: CZ-6A DEB

International designator: 2024-140AA

Object number (NORAD): 60625

Object ID (CCSDS): 60625

Country: PEOPLES REPUBLIC OF CHINA (PRC)

Current information (Y/N): Y

RCS size: SMALL

Orbital parameters

Period: 99.691 minutes

Inclination: 89.0018 deg

SMA: 7121.908 km

Apoapsis: 790.197 km

Periapsis: 697.349 km

RAAN: 305.2469 deg

Eccentricy: 0.00651854

Argument of periapsis: 220.4249 deg

Mean anomaly: 139.2102 deg

Mean motion: 14.44468975 rev/day

Mean motion (dot): 0.00006383 rev/day2

B* drag term: 0.0017982489 1/REarth

Two-line elements (TLE)

Creation date: Sept. 6, 2025, 2:09 a.m.

Reference frame: TEME

Reference center: EARTH

Epoch: Sept. 5, 2025, 9:20 p.m. UTC

TLE line 0: 0 CZ-6A DEB

TLE line 1: 1 60625U 24140AA 25248.88947441 .00006383 00000-0 17982-2 0 9995

TLE line 2: 2 60625 89.0018 305.2469 0065185 220.4249 139.2102 14.44468975 56814

Live tracking on map

Real-time ground track for satellite CZ-6A DEB.

In-orbit conjunctions

A list of the most updated potential collisions computed for object CZ-6A DEB.

Target Orbit TCA Probability of collision Miss distance Type
WORLDVIEW 2 DEB SSO 2025-03-23 15:11:46 0.0001118514 267.0 (m) DEBRIS
SL-8 DEB * LEO 2025-02-09 09:34:11 0.0001053656 744.0 (m) DEBRIS
FENGYUN 1C DEB SSO 2025-01-27 12:43:31 0.0001084458 195.0 (m) DEBRIS
CZ-6A DEB SSO 2024-11-11 15:59:37 0.0001145544 184.0 (m) DEBRIS
COSMOS 2251 DEB LEO 2024-11-11 03:14:40 0.0002342618 346.0 (m) DEBRIS

Associated space launch

18 Low Earth Orbit communication satellites with Ku, Q and V band payloads for the G60 constellation operated by Shanghai Spacecom Satellite Technology (SSST) with funding backed by the Shanghai local government. Initial constellation will consist of 1296 satellites by 2027 with long term plans to expand it to 12000 satellites.

CZ-6A DEB was lifted into orbit during the mission ‘Long March 6A | G60 Polar Group 01’, on board a Long March 6A space rocket.

The launch took place on Aug. 6, 2024, 6:42 a.m. from Launch Complex 9A.

For more information about the launch, click the button.

Launch to space Long March 6A | G60 Polar Group 01
Long March 6A | G60 Polar Group 01

Agency: N/A

Status: Launch Successful

Launch date: Aug. 6, 2024, 6:42 a.m. UTC

Rocket: Long March 6A

Launch pad: Launch Complex 9A

Location: Taiyuan Satellite Launch Center, People's Republic of China

...

Latest news about this satellite

News about space launch
Brightness of first Chinese broadband constellation satellites alarms astronomers

The first satellites of a Chinese broadband constellation are significantly brighter than those of Western systems, posing a new challenge for astronomers.

News about space launch
Chinese rocket stage breaks up into cloud of more than 700 pieces of space debris

HELSINKI — A Chinese Long March 6A rocket’s upper stage has fragmented into a cloud of over 700 pieces of space debris, adding to concerns about long-term orbital safety. China […]

News about space launch
China's Thousand Sails Megaconstellation Kicks Off with Dangerous Debris Field

China's Thousand Sails Megaconstellation Kicks Off with Dangerous Debris Field


Newsletter sign-up

Weekly statistics, charts and insights to help you stay on top of the space industry.